Location: Brunembert
(50.7122°N, 1.8935°E)
Time: 10:15:35
(UTC+00:00)

Timation 1 Rocket - Pass Details

Date: 22 April 2021
Orbit: 900 x 907 km, 70.0° (Epoch: 05 May)

Event Time Altitude Azimuth Distance (km) Brightness Sun altitude
Rises 21:40:28 0° 216° (SW) 3,514 7.2 -20.7°
Reaches altitude 10° 21:42:57 10° 218° (SW) 2,576 6.5 -20.9°
Maximum altitude 21:48:55 74° 304° (WNW) 939 4.5 -21.4°
Drops below altitude 10° 21:54:54 10° 29° (NNE) 2,588 7.1 -21.9°
Sets 21:57:25 0° 32° (NNE) 3,532 7.8 -22.1°
